Overview Statistics Trail Chart Weather Telemetry Raw packets
 

This is the latest recevied weather packets stored in our database for station/object N5ATR. If no packets are shown the sender has not sent any weather packets the latest 10 day(s).

<< 107 108 109 110 111 112 113 >>
Time Temp. Humidity Pressure Rain* Wind** Luminosity Snow
1787876792 23.89° C 41% 1024.9 hPa 0 mm - 44 W/m² -
1787876492 23.89° C 42% 1025 hPa 0 mm - 32 W/m² -
1787876191 23.89° C 43% 1025.2 hPa 0 mm - 29 W/m² -
1787875887 23.89° C 43% 1025.4 hPa 0 mm - 79 W/m² -
1787875586 23.89° C 43% 1025.1 hPa 0 mm - 30 W/m² -
1787875286 23.89° C 42% 1025.1 hPa 0 mm - 38 W/m² -
1787874983 24.44° C 41% 1025.2 hPa 0 mm - 63 W/m² -
1787874679 23.89° C 41% 1025.4 hPa 0 mm - 179 W/m² -
1787874377 23.33° C 42% 1025.8 hPa 0 mm - 45 W/m² -
1787874072 23.89° C 42% 1025.7 hPa 0 mm - 43 W/m² -
1787873767 24.44° C 41% 1025.5 hPa 0 mm - 60 W/m² -
1787873462 23.89° C 41% 1025.6 hPa 0 mm - 158 W/m² -
1787873157 24.44° C 40% 1025.8 hPa 0 mm - 58 W/m² -
1787872856 24.44° C 41% 1025.6 hPa 0 mm - 60 W/m² -
1787872552 24.44° C 40% 1026 hPa 0 mm - 48 W/m² -
1787872246 24.44° C 40% 1025.7 hPa 0 mm - 47 W/m² -
1787871946 25° C 39% 1025.6 hPa 0 mm - 49 W/m² -
1787871641 25° C 39% 1025.6 hPa 0 mm - 59 W/m² -
1787871337 25° C 38% 1025.8 hPa 0 mm - 67 W/m² -
1787871032 25° C 36% 1025.8 hPa 0 mm - 72 W/m² -
1787870731 25° C 36% 1026 hPa 0 mm - 83 W/m² -
1787870427 25.56° C 38% 1025.8 hPa 0 mm - 97 W/m² -
1787870122 26.11° C 34% 1025.8 hPa 0 mm - 83 W/m² -
1787869821 25.56° C 37% 1025.7 hPa 0 mm - 90 W/m² -
1787869520 26.11° C 36% 1025.6 hPa 0 mm - 74 W/m² -

* Rain latest hour (hover to see other rain measurements)
** Current wind speed in m/s (hover to see current wind gust speed)